Flag for Switzerland Weather past 2 weeks in Köniz, Bern, Switzerland

Now
37 °F

Sunny.


Feels Like: 34 °F
Forecast: 33 / 49 °F
Wind: 5 mph from Southeast

Location: Bern / Belp

Current Time: Dec 22, 2014 at 4:49:21 PM

Latest Report: Dec 22, 2014 at 4:20 PM


Visibility: 10 mi

Pressure: 30.39 "Hg

Humidity: 81%

Dew point: 32 °F

Location of KönizLocation

Historic Weather in Köniz — Graph

°F

Köniz temperature yesterday

Maximum temperature yesterday: 48 °F (at 2:50 PM)
Minimum temperature yesterday: 28 °F (at 7:50 AM)
Average temperature yesterday: 36 °F

Past Weeks' High & Low Weather Summary

 TemperatureHumidityPressure
High54 °F (Dec 19, 2:20 PM)100% (Dec 8, 12:50 AM)30.54 "Hg (Dec 8, 12:50 AM)
Low25 °F (Dec 10, 4:20 AM)50% (Dec 12, 1:50 PM)29.86 "Hg (Dec 12, 3:20 PM)
Average39 °F88%30.15 "Hg
* Reported Dec 7 3:20 PM — Dec 22 3:50 PM, Köniz, Weather by CustomWeather, © 2014

Note: Actual official high and low records may vary slightly from our data, if they occured in-between our weather recording intervals... More about our weather records

Advertising

Köniz weather history for previous 24 hours

 ConditionsComfort  
Time TempWeatherWind HumidityBarometerVisibility
3:50 PM
Dec 22
43 °FSunny.2 mph71%30.39 "Hg10 mi
3:20 PM46 °FSunny.1 mph66%30.39 "Hg10 mi
2:50 PM45 °FSunny.1 mph66%30.39 "Hg10 mi
2:20 PM45 °FSunny.1 mph61%30.39 "Hg10 mi
1:50 PM45 °FSunny.3 mph66%30.39 "Hg10 mi
1:20 PM45 °FSunny.2 mph61%30.42 "Hg10 mi
12:50 PM43 °FScattered clouds.6 mph71%30.42 "HgN/A
12:20 PM41 °FScattered clouds.3 mph76%30.42 "HgN/A
11:50 AM37 °FSunny.3 mph81%30.45 "Hg10 mi
11:20 AM34 °FSunny.1 mph87%30.45 "Hg10 mi
10:50 AM32 °FSunny.1 mph93%30.45 "Hg10 mi
10:20 AM30 °FSunny.1 mph93%30.45 "Hg10 mi
9:50 AM28 °FSunny.2 mph93%30.45 "Hg10 mi
9:20 AM27 °FSunny.1 mph100%30.45 "Hg10 mi
8:50 AM25 °FSunny.1 mph93%30.45 "Hg10 mi
8:20 AM27 °FSunny.1 mph93%30.45 "Hg10 mi
7:50 AM27 °FClear.6 mph93%30.45 "Hg10 mi
7:20 AM27 °FClear.2 mph93%30.45 "Hg10 mi
6:20 AM25 °FClear.1 mph100%30.45 "Hg10 mi
5:50 AM27 °FClear.2 mph93%30.45 "Hg10 mi
5:20 AM27 °FClear.2 mph100%30.45 "Hg10 mi
4:50 AM27 °FClear.2 mph100%30.45 "Hg10 mi
4:20 AM28 °FClear.1 mph93%30.45 "Hg10 mi
3:50 AM28 °FPassing clouds.3 mph93%30.48 "HgN/A
3:20 AM27 °FClear.5 mph100%30.48 "Hg10 mi
2:50 AM28 °FClear.7 mph93%30.48 "Hg10 mi
2:20 AM28 °FClear.5 mph93%30.48 "Hg10 mi
1:50 AM27 °FClear.1 mph100%30.48 "Hg10 mi
1:20 AM28 °FChilly.1 mph93%30.48 "HgN/A
12:50 AM28 °FPassing clouds.3 mph100%30.48 "HgN/A
12:20 AM28 °FClear.3 mph100%30.51 "Hg10 mi
11:50 PM
Dec 21
30 °FPassing clouds.5 mph100%30.51 "HgN/A
11:20 PM30 °FClear.6 mph93%30.51 "Hg10 mi
10:20 PM30 °FClear.6 mph93%30.51 "Hg10 mi
9:50 PM28 °FClear.3 mph100%30.51 "Hg10 mi
9:20 PM28 °FClear.1 mph100%30.54 "Hg10 mi
8:50 PM30 °FClear.1 mph100%30.54 "Hg10 mi
8:20 PM32 °FPassing clouds.3 mph93%30.54 "HgN/A
7:50 PM32 °FPassing clouds.6 mph93%30.54 "HgN/A
7:20 PM32 °FPassing clouds.3 mph93%30.54 "HgN/A
6:50 PM32 °FPassing clouds.2 mph93%30.54 "HgN/A
6:20 PM34 °FPassing clouds.1 mph93%30.51 "HgN/A
5:50 PM36 °FPassing clouds.1 mph87%30.51 "HgN/A
5:20 PM37 °FClear.1 mph81%30.51 "Hg10 mi
4:50 PM39 °FClear.1 mph81%30.51 "Hg10 mi
4:20 PM43 °FSunny.3 mph66%30.51 "Hg10 mi
Weather by CustomWeather, © 2014

See weather overviewHow to use our weather pages